Notices

What's New in latest Release from April 7th, 2021:

- Updated Glossary, including Speed of Maximum Gust, and Total Hourly Precipitation

- Updated national and regional climate services offices contacts and prices information

- Addition of station inventory lists for 1981-2010, 1971-2000, and 1961-1990 Normals.

If you haven't already, please take our survey and provide feedback about our website: https://eccc.sondage-survey.ca/f/LanguageSelection.aspx?s=442ca660-fcf1-47c0-95a9-59707d6fd709

Hourly Data Report for July 30, 2018

TORONTO CITY
ONTARIO
Current Station Operator: ECCC - MSC

43°40'00.000" N
79°24'00.000" W
112.50 m
6158355
71508
XTO

Download Data

Hourly Data (July 2018)
Hourly Data Report for July 30, 2018
TIME
LST
Temp Definition
°C
Dew Point Definition
°C
Rel Hum Definition
%
Precip. Amount Definition
mm

Wind Dir Definition
10's deg

Wind Spd Definition
km/h
Visibility Definition
km
Stn Press Definition
kPa
Hmdx Definition


Wind Chill Definition


Weather Definition


00:00 20.0 17.1 84 0.0 LegendMM LegendMM   100.64 25   LegendNANA
01:00 20.3 16.6 80 0.0 LegendMM LegendMM   100.64 25   LegendNANA
02:00 19.1 16.1 83 0.0 LegendMM LegendMM   100.62     LegendNANA
03:00 18.5 15.9 85 0.0 LegendMM LegendMM   100.58     LegendNANA
04:00 18.3 16.0 87 0.0 LegendMM LegendMM   100.56     LegendNANA
05:00 19.0 16.8 87 0.0 LegendMM LegendMM   100.61     LegendNANA
06:00 18.6 16.1 86 0.0 LegendMM LegendMM   100.62     LegendNANA
07:00 19.9 16.9 83 0.0 LegendMM LegendMM   100.63     LegendNANA
08:00 22.1 16.8 72 0.0 LegendMM LegendMM   100.62 27   LegendNANA
09:00 22.9 17.1 70 0.0 LegendMM LegendMM   100.60 28   LegendNANA
10:00 23.9 17.3 67 0.0 LegendMM LegendMM   100.59 29   LegendNANA
11:00 24.7 16.3 60 0.0 LegendMM LegendMM   100.60 30   LegendNANA
12:00 24.7 16.2 59 0.0 LegendMM LegendMM   100.59 29   LegendNANA
13:00 23.8 16.5 64 0.0 LegendMM LegendMM   100.57 29   LegendNANA
14:00 24.8 14.5 53 0.0 LegendMM LegendMM   100.61 28   LegendNANA
15:00 25.6 14.2 49 0.0 LegendMM LegendMM   100.54 29   LegendNANA
16:00 24.4 14.9 55 0.0 LegendMM LegendMM   100.47 28   LegendNANA
17:00 23.7 14.8 57 0.0 LegendMM LegendMM   100.47 28   LegendNANA
18:00 22.6 14.9 62 0.0 LegendMM LegendMM   100.44 27   LegendNANA
19:00 22.4 15.5 65 0.0 LegendMM LegendMM   100.46 27   LegendNANA
20:00 22.1 15.4 66 0.0 LegendMM LegendMM   100.42 26   LegendNANA
21:00 21.7 16.2 71 0.0 LegendMM LegendMM   100.48 26   LegendNANA
22:00 21.7 16.5 72 0.0 LegendMM LegendMM   100.46 27   LegendNANA
23:00 21.5 17.0 76 0.0 LegendMM LegendMM   100.47 27   LegendNANA

Notes on Data Quality.

Legend

  • E = Estimated
  • M = Missing
  • NA = Not Available*
  • [empty] = Indicates an unobserved value
Date modified: